AEE5SA LGSA-LGAV

Flight info

Callsign AEE5SA
Flight time 0h 34m
Altitude 26000
Route SOKRI UY151 VELOP
Aircraft A320/M-SDE3FGHIRWY/LB1

Departure

Time 2026-05-05 18:51
Airport Chania International Airport (LGSA)

Arrival

Time 2026-05-05 19:26
Airport Athens Eleftherios Venizelos International Airport (LGAV)
Time Latitude Longitude Altitude Speed Heading
2026-05-05 18:22 35.53884 24.14016 496 ft 0 kts 21°
2026-05-05 18:41 35.53881 24.14014 488 ft 3 kts 21°
2026-05-05 18:42 35.53856 24.14002 494 ft 4 kts 21°
2026-05-05 18:42 35.53832 24.13990 487 ft 2 kts 22°
2026-05-05 18:42 35.53815 24.13977 490 ft 4 kts 73°
2026-05-05 18:42 35.53815 24.13946 491 ft 4 kts 108°
2026-05-05 18:43 35.53818 24.13935 495 ft 0 kts 112°
2026-05-05 18:45 35.53815 24.13945 491 ft 3 kts 111°
2026-05-05 18:45 35.53801 24.13986 495 ft 6 kts 114°
2026-05-05 18:46 35.53757 24.14000 496 ft 8 kts 198°
2026-05-05 18:46 35.53695 24.13976 498 ft 10 kts 174°
2026-05-05 18:46 35.53654 24.14054 498 ft 13 kts 112°
2026-05-05 18:46 35.53618 24.14166 493 ft 15 kts 111°
2026-05-05 18:47 35.53575 24.14300 495 ft 18 kts 111°
2026-05-05 18:47 35.53524 24.14456 498 ft 21 kts 111°
2026-05-05 18:47 35.53465 24.14638 496 ft 24 kts 111°
2026-05-05 18:47 35.53406 24.14816 495 ft 21 kts 112°
2026-05-05 18:48 35.53348 24.14997 488 ft 24 kts 112°
2026-05-05 18:48 35.53282 24.15198 493 ft 26 kts 112°
2026-05-05 18:48 35.53233 24.15348 490 ft 18 kts 111°
2026-05-05 18:48 35.53183 24.15501 491 ft 21 kts 112°
2026-05-05 18:49 35.53126 24.15675 491 ft 23 kts 112°
2026-05-05 18:49 35.53072 24.15841 493 ft 15 kts 111°
2026-05-05 18:49 35.53031 24.15970 489 ft 16 kts 112°
2026-05-05 18:49 35.52963 24.15964 488 ft 11 kts 202°
2026-05-05 18:50 35.52882 24.15923 492 ft 11 kts 210°
2026-05-05 18:50 35.52880 24.15867 490 ft 1 kts 294°
2026-05-05 18:50 35.52901 24.15808 495 ft 32 kts 292°
2026-05-05 18:51 35.53081 24.15255 486 ft 103 kts 292°
2026-05-05 18:51 35.53409 24.14242 575 ft 145 kts 292°
2026-05-05 18:51 35.53785 24.13102 1217 ft 143 kts 292°
2026-05-05 18:51 35.54169 24.11977 1911 ft 144 kts 291°
2026-05-05 18:52 35.54573 24.10808 2416 ft 158 kts 291°
2026-05-05 18:52 35.55030 24.09461 2719 ft 183 kts 291°
2026-05-05 18:52 35.55546 24.07922 3093 ft 207 kts 296°
2026-05-05 18:52 35.56570 24.06652 3806 ft 218 kts 334°
2026-05-05 18:53 35.58070 24.06398 4710 ft 223 kts
2026-05-05 18:53 35.59599 24.06625 5719 ft 220 kts
2026-05-05 18:53 35.61117 24.06870 6696 ft 220 kts
2026-05-05 18:53 35.62646 24.06969 7630 ft 222 kts 353°
2026-05-05 18:54 35.64138 24.06348 8305 ft 240 kts 330°
2026-05-05 18:54 35.65552 24.05056 8758 ft 265 kts 325°
2026-05-05 18:54 35.67031 24.03637 9546 ft 273 kts 324°
2026-05-05 18:54 35.68541 24.02182 10340 ft 282 kts 324°
2026-05-05 18:55 35.70152 24.00635 10653 ft 305 kts 324°
2026-05-05 18:55 35.71873 23.98986 11158 ft 319 kts 324°
2026-05-05 18:55 35.73640 23.97297 11902 ft 324 kts 324°
2026-05-05 18:55 35.75410 23.95607 12682 ft 328 kts 323°
2026-05-05 18:56 35.77225 23.93873 13455 ft 332 kts 323°
2026-05-05 18:56 35.79057 23.92120 14194 ft 335 kts 323°
2026-05-05 18:56 35.80909 23.90350 14868 ft 338 kts 323°
2026-05-05 18:56 35.82775 23.88570 15583 ft 340 kts 323°
2026-05-05 18:57 35.84651 23.86779 16324 ft 341 kts 323°
2026-05-05 18:57 35.86530 23.84985 17030 ft 343 kts 323°
2026-05-05 18:57 35.88417 23.83177 17768 ft 344 kts 322°
2026-05-05 18:57 35.90312 23.81361 18484 ft 346 kts 322°
2026-05-05 18:58 35.92215 23.79534 19105 ft 347 kts 322°
2026-05-05 18:58 35.94127 23.77699 19746 ft 349 kts 322°
2026-05-05 18:58 35.96048 23.75856 20387 ft 351 kts 322°
2026-05-05 18:58 35.97980 23.74003 20989 ft 353 kts 322°
2026-05-05 18:59 35.99927 23.72136 21558 ft 356 kts 322°
2026-05-05 18:59 36.01888 23.70252 22133 ft 358 kts 322°
2026-05-05 18:59 36.03861 23.68354 22698 ft 360 kts 322°
2026-05-05 18:59 36.05841 23.66445 23253 ft 363 kts 322°
2026-05-05 19:00 36.07837 23.64520 23786 ft 365 kts 322°
2026-05-05 19:00 36.09845 23.62585 24258 ft 367 kts 322°
2026-05-05 19:00 36.11861 23.60642 24732 ft 369 kts 322°
2026-05-05 19:00 36.13893 23.58690 25192 ft 371 kts 322°
2026-05-05 19:01 36.15932 23.56727 25657 ft 373 kts 322°
2026-05-05 19:01 36.17983 23.54750 26003 ft 374 kts 322°
2026-05-05 19:01 36.20031 23.52772 26081 ft 371 kts 322°
2026-05-05 19:01 36.22060 23.50812 26095 ft 368 kts 322°
2026-05-05 19:02 36.24107 23.48910 26097 ft 367 kts 327°
2026-05-05 19:02 36.26373 23.47449 26102 ft 368 kts 336°
2026-05-05 19:02 36.28839 23.46561 26098 ft 371 kts 346°
2026-05-05 19:02 36.31390 23.46037 26095 ft 371 kts 347°
2026-05-05 19:03 36.33935 23.45517 26094 ft 371 kts 347°
2026-05-05 19:03 36.36481 23.44994 26094 ft 371 kts 347°
2026-05-05 19:03 36.39030 23.44473 26090 ft 371 kts 347°
2026-05-05 19:03 36.41573 23.43950 26090 ft 371 kts 347°
2026-05-05 19:04 36.44120 23.43426 26091 ft 371 kts 347°
2026-05-05 19:04 36.46667 23.42901 26087 ft 371 kts 347°
2026-05-05 19:04 36.49217 23.42374 26067 ft 372 kts 347°
2026-05-05 19:04 36.51771 23.41844 26082 ft 372 kts 347°
2026-05-05 19:05 36.54330 23.41308 26081 ft 373 kts 347°
2026-05-05 19:05 36.56889 23.40773 26079 ft 373 kts 347°
2026-05-05 19:05 36.59447 23.40243 26083 ft 373 kts 347°
2026-05-05 19:05 36.62008 23.39712 26084 ft 373 kts 347°
2026-05-05 19:06 36.64572 23.39180 26088 ft 373 kts 347°
2026-05-05 19:06 36.67130 23.38653 26086 ft 373 kts 347°
2026-05-05 19:06 36.69692 23.38124 26086 ft 373 kts 347°
2026-05-05 19:06 36.72216 23.37599 26084 ft 373 kts 347°
2026-05-05 19:07 36.74772 23.37064 26095 ft 373 kts 347°
2026-05-05 19:07 36.76501 23.36701 26095 ft 373 kts 347°
2026-05-05 19:07 36.79881 23.35992 26094 ft 372 kts 347°
2026-05-05 19:07 36.82434 23.35458 26093 ft 372 kts 347°
2026-05-05 19:08 36.84984 23.34930 26088 ft 371 kts 347°
2026-05-05 19:08 36.87509 23.34408 25877 ft 364 kts 347°
2026-05-05 19:08 36.89994 23.33891 25635 ft 360 kts 346°
2026-05-05 19:08 36.92460 23.33375 25396 ft 359 kts 346°
2026-05-05 19:09 36.94921 23.32862 25149 ft 358 kts 346°
2026-05-05 19:09 36.97360 23.32354 24890 ft 352 kts 346°
2026-05-05 19:09 36.99760 23.31851 24506 ft 348 kts 346°
2026-05-05 19:09 37.02136 23.31350 24099 ft 345 kts 346°
2026-05-05 19:10 37.04487 23.30857 23700 ft 341 kts 346°
2026-05-05 19:10 37.06819 23.30367 23254 ft 338 kts 346°
2026-05-05 19:10 37.09119 23.29886 22852 ft 332 kts 346°
2026-05-05 19:10 37.10624 23.29572 22591 ft 329 kts 346°
2026-05-05 19:11 37.13589 23.28952 22014 ft 325 kts 347°
2026-05-05 19:11 37.15808 23.28490 21570 ft 322 kts 347°
2026-05-05 19:11 37.18012 23.28029 21108 ft 320 kts 347°
2026-05-05 19:11 37.20206 23.27568 20636 ft 319 kts 347°
2026-05-05 19:12 37.22391 23.27107 20185 ft 318 kts 347°
2026-05-05 19:12 37.24572 23.26645 19701 ft 318 kts 348°
2026-05-05 19:12 37.26046 23.26334 19382 ft 317 kts 348°
2026-05-05 19:12 37.28222 23.25875 18898 ft 317 kts 348°
2026-05-05 19:13 37.30369 23.25421 18426 ft 317 kts 348°
2026-05-05 19:13 37.32542 23.24958 17905 ft 317 kts 348°
2026-05-05 19:13 37.34708 23.24495 17417 ft 315 kts 349°
2026-05-05 19:13 37.36867 23.24035 16936 ft 314 kts 349°
2026-05-05 19:14 37.39018 23.23580 16457 ft 313 kts 349°
2026-05-05 19:14 37.41165 23.23128 15979 ft 313 kts 349°
2026-05-05 19:14 37.43309 23.22684 15502 ft 313 kts 352°
2026-05-05 19:14 37.45483 23.22733 15020 ft 315 kts
2026-05-05 19:15 37.47557 23.23637 14528 ft 319 kts 26°
2026-05-05 19:15 37.49325 23.25336 14027 ft 324 kts 44°
2026-05-05 19:15 37.50631 23.27662 13484 ft 328 kts 56°
2026-05-05 19:15 37.51800 23.30128 12964 ft 328 kts 56°
2026-05-05 19:16 37.52966 23.32590 12453 ft 327 kts 56°
2026-05-05 19:16 37.54130 23.35046 11938 ft 326 kts 56°
2026-05-05 19:16 37.55293 23.37488 11447 ft 324 kts 56°
2026-05-05 19:16 37.56452 23.39918 10948 ft 323 kts 56°
2026-05-05 19:17 37.57608 23.42345 10454 ft 322 kts 56°
2026-05-05 19:17 37.58741 23.44727 10261 ft 311 kts 56°
2026-05-05 19:17 37.59826 23.47022 10144 ft 299 kts 56°
2026-05-05 19:17 37.60868 23.49238 10031 ft 288 kts 56°
2026-05-05 19:18 37.61874 23.51377 9785 ft 281 kts 57°
2026-05-05 19:18 37.62871 23.53500 9395 ft 281 kts 57°
2026-05-05 19:18 37.63865 23.55619 9012 ft 280 kts 57°
2026-05-05 19:18 37.64857 23.57731 8640 ft 280 kts 57°
2026-05-05 19:19 37.65846 23.59839 8270 ft 279 kts 57°
2026-05-05 19:19 37.66833 23.61945 7911 ft 278 kts 57°
2026-05-05 19:19 37.67815 23.64045 7554 ft 277 kts 57°
2026-05-05 19:19 37.68793 23.66142 7203 ft 277 kts 57°
2026-05-05 19:20 37.69776 23.68251 6560 ft 280 kts 57°
2026-05-05 19:20 37.70768 23.70371 5806 ft 281 kts 57°
2026-05-05 19:20 37.71758 23.72486 5258 ft 275 kts 57°
2026-05-05 19:20 37.72924 23.74301 4884 ft 260 kts 39°
2026-05-05 19:21 37.74379 23.75558 4552 ft 248 kts 30°
2026-05-05 19:21 37.75812 23.76684 4221 ft 237 kts 30°
2026-05-05 19:21 37.77175 23.77762 3981 ft 223 kts 30°
2026-05-05 19:21 37.78437 23.78768 3858 ft 210 kts 32°
2026-05-05 19:22 37.79619 23.79911 3435 ft 217 kts 38°
2026-05-05 19:22 37.80799 23.81103 3099 ft 215 kts 36°
2026-05-05 19:22 37.81964 23.82224 2809 ft 206 kts 35°
2026-05-05 19:22 37.83075 23.83279 2570 ft 194 kts 35°
2026-05-05 19:23 37.84132 23.84280 2307 ft 183 kts 35°
2026-05-05 19:23 37.85097 23.85195 2062 ft 165 kts 35°
2026-05-05 19:23 37.85950 23.86004 1862 ft 149 kts 35°
2026-05-05 19:23 37.86760 23.86771 1664 ft 143 kts 35°
2026-05-05 19:24 37.87553 23.87518 1463 ft 141 kts 35°
2026-05-05 19:24 37.88336 23.88249 1308 ft 139 kts 35°
2026-05-05 19:24 37.89110 23.88984 1148 ft 138 kts 36°
2026-05-05 19:24 37.89869 23.89724 960 ft 137 kts 37°
2026-05-05 19:25 37.90618 23.90449 765 ft 134 kts 35°
2026-05-05 19:25 37.91365 23.91152 574 ft 133 kts 36°
2026-05-05 19:25 37.92099 23.91850 402 ft 132 kts 35°
2026-05-05 19:25 37.92820 23.92529 302 ft 120 kts 37°
2026-05-05 19:26 37.93364 23.93047 291 ft 73 kts 37°
2026-05-05 19:26 37.93635 23.93304 296 ft 28 kts 37°
2026-05-05 19:26 37.93792 23.93453 292 ft 29 kts 38°
2026-05-05 19:26 37.93915 23.93649 294 ft 29 kts 64°
2026-05-05 19:27 37.93995 23.93877 301 ft 28 kts 67°
2026-05-05 19:27 37.94133 23.94052 302 ft 30 kts 36°
2026-05-05 19:27 37.94250 23.94187 301 ft 18 kts 77°
2026-05-05 19:27 37.94271 23.94328 301 ft 19 kts 37°
2026-05-05 19:28 37.94385 23.94435 301 ft 22 kts 37°
2026-05-05 19:28 37.94517 23.94560 302 ft 25 kts 37°
2026-05-05 19:28 37.94612 23.94651 301 ft 13 kts 36°
2026-05-05 19:28 37.94610 23.94752 302 ft 15 kts 128°
2026-05-05 19:29 37.94539 23.94869 302 ft 18 kts 127°
2026-05-05 19:29 37.94456 23.95012 301 ft 21 kts 127°
2026-05-05 19:29 37.94380 23.95139 301 ft 15 kts 127°
2026-05-05 19:29 37.94311 23.95256 301 ft 18 kts 127°
2026-05-05 19:30 37.94258 23.95344 301 ft 9 kts 127°
2026-05-05 19:30 37.94221 23.95398 301 ft 5 kts 149°
2026-05-05 19:30 37.94183 23.95379 302 ft 8 kts 213°
2026-05-05 19:30 37.94152 23.95350 301 ft 4 kts 220°
2026-05-05 19:31 37.94138 23.95336 301 ft 1 kts 217°
2026-05-05 19:31 37.94137 23.95335 301 ft 0 kts 217°